ECMWFFLT2_850_thetae_021.txt.gz
Theta_e
340 338 337 337 337 338 338 337 336 335 333 331 330 331 331 330 330 330 330 330 330 330 330 330 330 329 330 331 331 330 327 327 326 325 325 325 325 326 327 327 328 328 327 326 325 324 324 325 326 326 327 325 324 323 325 331 331 332 332 329 330 327
340 339 337 338 338 338 338 338 338 337 336 334 333 331 331 332 331 331 330 330 330 331 331 332 331 330 330 329 328 328 327 326 325 324 324 325 324 324 323 323 326 327 327 327 326 325 322 323 324 324 327 327 323 323 329 332 330 330 331 331 330 322
339 339 338 338 338 338 337 337 337 337 337 336 336 334 334 334 333 333 332 331 330 331 331 332 332 330 330 328 326 326 325 325 324 322 323 323 322 322 322 322 322 323 325 327 327 326 324 322 322 322 324 327 324 327 333 332 330 330 330 331 328 318
340 338 337 338 337 337 336 337 338 337 337 337 337 337 336 336 333 334 335 332 331 332 331 332 333 331 329 329 327 326 323 323 323 322 322 322 323 323 322 322 320 318 320 324 327 328 327 325 325 323 323 328 329 331 334 331 331 331 330 331 325 318
337 336 336 338 337 337 336 337 337 336 336 336 337 337 336 335 334 334 335 333 332 333 331 332 334 331 330 328 328 328 326 324 323 323 323 323 327 327 324 324 323 320 318 322 328 329 328 327 328 327 327 330 332 332 333 332 333 332 331 331 325 319
335 334 335 336 337 336 336 335 334 334 335 335 335 335 335 334 334 333 334 334 332 333 333 333 333 330 330 329 329 328 328 327 326 327 326 325 329 331 329 330 328 325 323 325 328 329 329 328 327 328 328 330 331 332 333 333 334 332 331 331 325 319
335 334 335 334 334 334 335 335 334 333 334 334 334 334 335 333 333 332 334 334 333 333 333 333 333 330 330 330 331 329 329 331 330 331 330 328 331 332 331 332 331 329 328 328 328 328 329 329 328 327 328 329 330 331 332 333 334 332 332 332 327 320
335 335 334 334 333 333 334 335 335 334 333 334 333 333 333 332 333 333 332 334 333 332 332 332 332 330 330 330 331 331 331 333 332 333 333 331 332 331 331 331 331 331 330 329 328 328 329 330 328 327 328 329 330 330 331 333 333 333 332 332 329 322
334 333 333 333 334 333 334 336 335 335 335 334 334 334 334 333 334 333 332 333 332 332 331 330 328 329 332 331 332 333 333 333 332 333 334 333 332 330 330 330 330 330 329 329 329 328 328 329 329 327 328 329 329 330 330 332 333 333 332 331 330 327
332 332 331 331 333 333 333 333 332 333 335 335 334 334 335 334 334 333 333 333 333 331 330 329 328 329 332 331 332 334 333 333 333 333 333 333 332 330 330 330 330 329 328 329 328 328 328 328 330 328 328 328 328 329 330 331 331 331 332 331 331 330
330 330 330 329 330 331 330 330 331 331 333 335 334 333 334 334 333 333 333 332 331 331 330 330 329 329 330 332 333 333 332 332 333 333 333 333 332 330 330 330 329 328 328 328 327 327 327 327 328 329 328 327 328 328 329 330 330 330 330 330 330 329
327 321 327 331 328 329 328 328 331 331 333 334 332 331 333 335 333 333 332 330 330 329 330 331 329 329 331 332 332 330 331 332 332 332 331 332 332 331 331 330 329 327 327 327 326 326 327 327 327 327 327 327 326 328 329 329 330 330 329 329 330 330
323 311 324 331 326 328 328 329 331 331 332 332 331 330 331 333 332 332 332 329 329 328 329 330 329 330 332 333 331 329 330 332 332 332 330 330 330 329 330 330 328 326 326 326 326 326 326 326 326 327 327 326 326 327 328 328 329 329 329 329 329 329
324 314 325 329 325 329 328 327 330 330 330 330 332 332 330 332 332 331 332 331 329 327 328 330 330 330 331 332 332 331 332 333 332 331 329 328 328 327 329 330 328 326 325 325 326 326 325 326 326 326 327 327 327 326 327 328 328 328 329 329 328 329
324 323 326 324 324 328 326 325 328 329 328 328 330 331 330 332 332 331 330 330 330 328 327 329 330 331 331 332 333 333 333 331 330 329 329 328 326 326 328 328 327 327 326 325 326 326 326 327 326 326 328 327 327 328 328 328 327 327 328 329 329 329
320 323 322 318 320 321 319 323 326 327 326 325 326 328 328 329 331 331 330 328 328 328 327 328 329 329 329 331 333 334 333 330 329 328 329 329 327 326 327 328 328 328 328 326 326 327 327 327 327 327 328 329 328 328 328 328 328 328 328 328 328 329
317 320 318 316 319 318 319 324 326 325 324 324 325 327 326 326 327 328 330 329 327 327 327 327 328 329 329 330 331 332 332 331 330 329 330 330 327 326 327 328 328 329 329 329 328 328 328 328 327 327 329 330 330 329 329 329 328 328 328 328 328 328
314 317 317 317 322 323 323 325 325 322 320 322 324 325 326 326 326 326 328 327 324 325 327 327 327 328 328 329 330 331 331 331 331 331 331 331 327 326 327 328 328 328 329 330 329 329 329 327 326 327 329 330 331 330 330 329 328 328 328 328 328 328
311 314 317 318 322 323 322 322 323 321 320 322 324 324 325 325 326 326 326 325 322 323 326 327 326 326 327 328 328 328 328 330 331 331 330 330 328 326 326 328 327 327 327 328 329 329 329 328 325 328 329 329 330 329 330 329 328 329 328 328 328 328
311 312 314 318 321 323 324 324 323 324 323 324 324 324 325 325 325 325 325 324 323 324 326 326 326 325 326 326 326 326 326 329 331 330 329 328 328 326 326 327 327 327 326 326 327 328 329 328 326 326 326 325 326 326 327 328 328 329 329 329 328 328
311 310 314 322 325 325 326 324 322 324 323 323 322 322 323 324 323 321 321 323 324 324 322 321 322 324 324 324 324 324 326 327 329 329 327 326 326 326 326 326 328 328 326 326 328 328 327 327 326 325 325 325 324 323 325 326 327 329 330 329 329 329
310 309 315 324 328 325 324 322 322 323 322 321 321 322 323 323 320 313 310 313 316 317 317 315 317 319 321 324 324 324 325 326 327 327 326 325 325 326 327 327 328 328 327 327 329 329 327 327 327 326 326 327 326 325 325 325 326 327 328 329 329 329
312 311 313 319 325 325 322 321 322 321 321 322 322 322 322 322 321 314 308 309 309 311 318 320 318 318 320 322 323 323 324 325 326 326 326 326 326 327 328 328 328 328 328 328 328 330 329 328 328 328 327 326 326 326 326 326 326 326 328 329 329 329
312 313 313 313 321 323 316 316 319 319 320 320 318 316 317 319 319 317 313 311 308 311 321 323 321 321 321 321 322 323 323 323 325 326 326 326 327 327 327 328 328 327 329 329 328 329 330 327 327 328 327 326 327 327 327 327 326 325 326 327 327 328
312 312 311 310 315 316 311 311 313 313 315 315 315 316 319 319 318 319 318 314 312 315 321 321 322 322 321 321 321 321 322 322 324 324 325 326 326 326 327 328 328 327 328 328 326 328 329 328 327 327 326 326 327 327 326 326 326 326 325 324 323 325
315 312 310 309 311 310 310 311 311 313 315 316 318 320 321 320 319 320 318 317 316 315 316 318 320 319 318 320 320 320 321 320 321 322 322 323 323 324 325 326 328 328 327 327 327 328 329 328 327 327 326 325 326 326 326 325 326 327 326 324 323 322
317 314 310 310 311 309 311 313 314 317 318 317 320 320 319 319 320 319 316 315 314 311 312 315 316 314 313 317 319 320 320 319 320 320 320 320 321 321 322 323 325 326 326 327 327 328 327 328 327 327 326 325 325 326 326 326 326 326 326 326 325 323
318 316 311 310 311 309 312 315 316 319 319 318 320 319 318 318 318 316 313 315 315 314 315 315 315 315 315 317 318 319 319 319 319 319 319 320 320 321 321 321 322 323 324 325 326 326 326 326 326 327 326 325 326 326 326 326 326 325 326 325 325 326
318 317 313 311 311 309 314 318 317 319 319 318 320 318 318 318 316 314 313 315 319 318 316 314 313 314 315 315 315 316 316 317 318 317 318 318 316 316 316 316 317 318 318 318 320 322 324 324 323 325 325 324 324 325 325 325 325 324 325 326 325 326
318 319 315 312 311 310 314 318 319 319 319 319 320 317 318 319 317 315 314 314 318 318 316 313 310 310 312 311 309 310 310 310 312 312 312 312 310 308 307 307 308 308 307 307 308 312 316 318 318 318 321 322 322 323 323 323 323 323 323 324 324 324
318 319 317 312 311 310 312 317 320 319 319 320 319 318 319 319 318 318 317 316 318 319 319 314 310 308 309 308 307 307 307 306 306 307 308 310 309 307 305 305 305 305 305 305 304 305 307 308 308 309 313 318 319 319 320 321 321 322 321 322 321 321
318 319 319 314 311 311 310 314 320 320 319 320 317 317 320 319 319 320 318 318 319 319 319 316 311 309 307 307 307 306 306 306 305 305 306 307 307 307 306 306 306 306 306 306 306 306 305 305 308 309 307 309 312 314 316 316 315 314 315 318 319 319
319 318 319 316 311 311 310 311 318 320 319 318 315 314 319 319 319 320 319 319 319 319 320 318 314 311 308 307 307 307 306 306 305 305 305 305 306 306 306 307 306 306 306 306 306 306 306 305 308 309 308 309 312 313 313 310 306 307 309 313 316 317
321 319 318 317 313 311 311 310 315 319 319 318 315 313 318 319 318 319 320 319 318 319 319 319 317 313 309 308 308 308 307 307 306 306 305 305 306 305 307 309 307 306 306 306 306 306 306 305 305 305 307 309 311 310 310 307 305 308 311 312 315 317
325 321 317 318 315 311 311 311 313 319 320 320 318 315 316 319 318 318 320 320 318 318 319 319 318 315 310 309 309 308 307 307 307 306 306 305 306 305 306 308 307 306 306 305 306 305 305 305 305 304 305 306 310 310 308 307 308 309 311 311 311 312
326 323 319 318 316 312 311 311 312 316 321 322 321 319 317 318 319 317 319 320 318 318 319 319 320 316 311 309 309 309 308 308 307 307 307 306 306 306 305 306 306 306 306 305 305 306 305 305 304 304 304 304 310 311 305 304 308 307 306 306 305 305
326 326 324 321 317 313 311 310 311 313 318 322 323 322 319 319 320 318 318 319 319 318 318 319 320 316 312 311 310 309 309 309 308 308 308 307 306 306 306 306 306 305 306 305 306 305 305 305 304 304 304 303 307 309 304 302 305 304 302 303 302 303

ECMWFFLT2_850_thetae_024.txt.gz
Theta_e
338 338 339 338 338 337 336 334 332 331 330 329 329 329 330 329 329 330 330 330 330 330 330 330 330 329 331 331 330 330 328 326 325 325 325 324 325 326 327 328 328 327 327 326 324 322 322 322 323 326 327 323 321 326 330 330 332 333 332 331 329 327
338 339 339 339 339 338 338 337 335 333 331 330 330 329 330 330 330 330 330 330 330 330 331 331 331 329 329 330 329 330 327 325 324 324 324 324 325 326 325 327 327 328 328 327 326 325 321 320 323 325 326 325 323 324 324 325 331 332 331 331 330 325
338 339 338 339 339 338 338 338 337 336 334 333 332 330 330 331 331 331 330 331 330 331 331 329 330 329 328 329 330 329 327 324 324 324 323 324 325 325 324 323 324 326 328 327 327 327 324 319 320 323 325 326 325 323 323 326 330 331 329 330 330 328
337 338 338 338 338 338 338 338 338 338 337 336 334 333 333 331 332 332 332 332 331 331 330 329 328 328 328 329 329 328 326 325 324 322 322 323 324 323 322 322 322 323 325 326 326 327 327 323 319 320 323 326 326 328 330 330 331 331 330 329 330 330
337 336 337 336 336 337 338 337 338 337 337 337 336 335 335 334 333 333 333 332 332 332 330 329 329 329 329 329 329 328 326 326 324 322 321 323 325 325 325 323 322 321 321 322 325 328 328 329 325 319 322 327 328 332 333 330 331 332 331 330 330 328
333 332 334 334 334 335 336 337 337 335 336 336 335 335 335 335 335 334 333 333 332 331 330 330 330 331 330 329 329 329 328 328 326 325 324 324 324 327 328 327 325 324 320 320 325 329 329 330 328 322 324 328 329 332 333 331 332 333 331 330 331 328
332 331 333 332 332 335 335 335 334 333 334 334 334 334 334 334 333 332 332 332 331 331 330 329 330 331 330 330 330 329 329 329 329 329 328 326 325 329 331 330 330 329 326 325 327 330 329 329 328 326 327 329 329 331 333 333 334 332 332 331 331 328
333 332 331 330 332 333 332 333 333 333 334 332 331 332 332 333 332 331 331 332 331 331 330 330 330 330 328 329 330 330 330 331 331 330 330 328 327 330 331 331 332 332 330 329 329 329 329 329 329 328 328 329 329 330 332 333 334 332 332 332 331 327
333 332 331 332 333 333 332 333 333 333 334 333 332 333 332 333 332 330 330 331 330 330 331 331 331 330 329 328 329 330 331 332 332 331 330 330 329 330 332 331 331 331 331 330 329 329 329 330 330 328 328 329 329 330 331 332 333 333 332 332 331 328
332 332 331 333 333 332 332 331 331 332 332 332 332 332 333 333 333 332 330 329 328 329 331 332 331 331 330 327 328 330 331 332 332 331 331 331 330 331 331 330 330 331 330 329 328 328 329 329 330 329 328 329 329 329 330 331 333 333 332 332 331 329
332 331 331 331 332 332 329 327 329 331 331 332 331 332 332 332 332 331 330 328 328 329 331 332 330 330 330 329 329 329 331 331 331 331 331 330 331 331 330 330 330 330 330 329 328 328 328 328 330 330 328 329 328 328 329 330 331 332 331 332 330 329
330 329 330 330 330 330 329 328 329 330 331 331 328 329 331 330 330 331 331 330 329 331 332 332 331 329 329 330 329 329 329 329 330 331 331 331 331 331 330 330 330 329 329 329 328 327 327 327 328 329 328 328 328 327 329 329 330 330 330 331 330 329
323 325 331 329 328 328 329 330 330 331 332 330 326 327 328 327 328 330 331 330 329 330 331 332 331 329 328 329 329 329 328 329 330 330 331 332 331 331 330 330 329 328 329 328 327 326 327 327 327 328 328 327 328 327 328 329 329 330 330 330 330 329
315 322 330 328 329 330 328 328 329 330 331 330 330 329 329 328 328 329 330 330 329 329 329 330 331 329 328 329 328 329 329 329 330 330 331 331 331 331 330 330 329 328 328 327 326 326 327 327 327 327 327 327 327 326 327 328 328 329 329 329 329 329
315 322 326 324 327 329 327 328 330 330 328 328 330 329 329 330 330 330 330 330 330 330 330 330 331 330 330 330 329 329 330 330 330 330 330 329 329 329 329 330 329 328 327 325 326 327 326 326 327 326 326 327 327 327 327 327 328 328 328 328 328 329
318 320 320 319 320 320 321 324 326 326 324 325 328 328 327 327 328 329 329 329 329 330 330 330 331 331 331 331 330 330 331 331 331 330 327 325 325 327 329 329 328 327 327 326 326 327 326 326 326 326 327 327 327 328 327 327 327 327 327 328 328 328
318 317 317 317 315 316 319 322 321 321 324 325 326 327 327 326 326 327 328 328 328 328 329 329 329 330 330 330 330 331 332 332 330 328 327 326 327 328 329 329 327 328 328 328 327 328 328 327 327 327 328 327 327 328 328 327 327 327 328 328 328 328
316 316 317 316 315 316 319 323 322 317 320 324 323 324 326 327 326 327 326 327 327 326 326 328 329 329 329 329 330 330 331 330 328 327 327 328 328 328 329 329 328 328 329 328 328 328 328 328 328 328 328 328 328 329 328 328 328 328 328 328 328 328
314 315 317 316 313 314 316 321 322 319 321 324 323 323 325 326 325 325 325 324 325 325 325 327 327 328 328 329 330 330 329 327 326 328 328 327 327 328 328 328 328 328 329 329 328 328 328 328 328 326 326 328 329 330 330 329 329 328 328 328 328 328
313 317 318 315 313 318 321 322 324 325 324 324 323 322 324 325 325 325 325 324 325 325 325 326 327 326 326 326 327 327 326 326 327 327 328 328 328 328 328 327 327 328 328 329 328 327 328 328 328 325 325 326 326 327 328 328 329 329 328 327 328 328
313 316 315 314 319 325 326 324 324 325 323 322 322 322 322 323 324 324 324 324 324 323 321 322 324 325 325 325 325 324 323 324 326 326 326 328 327 328 328 327 326 327 328 328 327 326 326 327 328 326 326 325 323 324 325 326 327 329 329 328 328 328
312 313 312 317 324 327 325 323 323 324 323 321 322 323 323 321 319 316 317 317 314 316 319 318 319 320 321 324 325 324 323 322 323 325 326 326 327 328 328 327 327 327 328 327 327 326 326 326 326 326 325 324 324 325 325 324 324 326 327 327 328 328
311 311 313 319 323 323 322 323 322 322 323 322 323 324 321 319 318 313 311 310 307 314 322 323 321 319 320 323 323 324 323 322 323 325 326 326 327 328 328 327 328 328 328 327 327 327 327 326 325 325 325 325 326 327 326 326 326 326 326 326 327 327
311 311 313 317 318 317 317 319 319 320 322 319 317 319 315 313 317 315 310 308 307 314 321 322 323 322 321 320 321 323 322 322 323 325 326 326 326 327 327 327 328 328 328 328 327 327 327 326 325 326 327 327 328 327 327 328 328 327 326 325 325 324
312 312 312 314 315 312 312 313 313 315 316 311 309 315 316 315 319 318 313 310 311 314 316 318 320 321 321 320 319 320 322 321 322 324 324 324 324 324 325 326 327 328 328 328 328 328 328 327 326 327 327 327 327 326 327 328 327 326 326 324 323 323
312 312 312 313 313 311 310 310 309 309 311 311 314 319 319 319 321 320 316 313 311 310 311 313 313 313 317 319 319 320 321 321 321 322 323 323 323 323 324 325 327 327 328 328 328 328 328 328 327 327 327 327 326 326 326 326 324 323 324 324 324 323
312 313 312 313 313 311 311 310 309 311 314 317 321 322 319 320 320 315 312 311 310 309 312 312 310 312 315 316 318 319 319 320 320 320 321 321 322 322 323 324 325 324 325 326 327 328 329 328 328 327 327 326 326 326 325 325 325 324 323 324 324 324
312 313 312 312 312 311 311 309 311 316 319 320 321 319 316 316 314 309 309 314 315 314 316 315 313 317 317 313 314 317 319 320 319 319 320 320 320 321 321 322 323 323 324 325 325 326 326 326 327 327 327 326 326 326 325 324 324 325 324 323 323 323
315 313 312 312 312 312 311 310 314 318 320 320 319 315 312 311 310 308 310 317 319 314 312 312 311 313 314 310 310 313 316 318 318 318 317 314 312 312 312 312 314 317 320 323 323 323 323 323 324 325 324 324 325 325 324 324 324 325 324 324 324 323
319 315 313 312 311 312 311 310 315 319 320 320 317 313 313 311 309 309 309 312 315 313 310 310 309 310 309 307 307 308 309 312 314 314 314 311 307 304 304 305 305 307 310 313 317 322 322 319 319 321 322 322 323 323 323 323 324 324 323 322 322 323
322 318 314 312 311 312 312 311 314 318 320 320 315 313 314 311 308 310 309 311 314 315 314 310 308 309 308 307 307 306 306 307 308 310 312 312 310 307 306 306 305 305 305 305 308 314 314 310 311 316 319 321 321 321 322 322 322 323 322 321 321 320
325 320 317 314 311 311 312 311 314 317 320 320 316 313 313 310 310 311 311 314 316 315 313 310 308 309 308 308 307 307 306 306 306 307 308 310 311 310 309 307 306 306 306 306 306 306 306 307 309 310 312 315 316 316 317 316 316 317 318 317 316 315
326 322 319 316 312 311 312 312 313 316 320 321 316 315 314 310 311 313 313 316 317 315 314 311 309 309 309 308 308 307 307 306 306 306 306 307 307 309 310 308 306 306 306 306 306 306 305 307 308 308 309 312 312 311 309 308 306 308 309 308 309 313
327 324 320 318 313 311 312 312 312 315 319 320 316 316 317 313 313 316 317 317 318 319 318 314 311 309 309 309 308 308 308 307 307 306 306 306 305 307 311 309 306 306 307 306 306 306 306 305 305 306 308 310 311 309 307 306 306 309 310 306 307 312
328 326 323 320 315 312 312 312 313 314 317 317 314 315 320 318 315 318 320 318 318 320 319 317 314 310 309 309 309 309 308 308 308 307 307 307 306 306 308 308 306 306 307 306 306 306 306 306 305 305 305 308 312 311 306 306 307 309 309 306 305 306
329 329 326 322 316 312 311 311 313 314 316 316 314 313 318 321 318 319 321 319 318 320 320 319 316 312 310 310 309 309 309 309 308 308 308 307 307 306 306 306 306 306 306 306 306 306 306 306 305 305 304 305 309 308 304 304 306 305 305 304 303 303
329 329 328 325 318 313 311 311 312 314 316 318 317 314 315 320 319 318 321 320 318 319 320 320 318 314 311 311 310 310 310 309 309 309 308 308 308 307 307 307 306 306 306 306 306 305 306 306 305 305 304 304 305 305 303 303 304 303 303 303 303 303

ECMWFFLT2_850_thetae_030.txt.gz
Theta_e
331 331 331 331 331 331 330 330 330 331 331 331 331 331 332 331 331 331 331 330 329 329 328 328 328 328 327 327 328 330 329 328 327 325 324 324 324 325 325 326 327 325 323 318 315 317 317 317 325 332 332 332 333 332 332 332 331 331 331 330 330 330
332 332 332 331 332 331 332 331 331 331 331 331 331 331 331 331 331 331 331 330 330 329 329 329 328 329 329 328 328 329 329 328 327 325 325 325 324 325 326 326 327 326 326 324 318 317 318 317 320 328 332 333 333 332 331 331 331 330 331 331 330 329
333 332 332 331 332 332 332 331 331 331 331 331 331 331 331 331 330 330 330 330 330 329 329 329 329 329 329 329 329 329 329 328 326 326 326 326 325 326 327 326 326 326 326 326 323 317 318 319 319 327 332 332 333 333 332 331 331 331 331 331 330 329
334 334 333 333 333 332 332 332 331 330 331 332 331 331 331 330 330 330 330 330 330 330 329 329 330 330 330 329 329 329 330 329 327 326 326 325 325 326 326 325 323 323 324 325 326 321 317 319 321 327 332 332 331 331 332 332 330 330 331 330 329 329
336 336 335 335 335 334 333 333 331 331 333 333 332 332 331 331 330 330 330 330 330 330 330 330 330 330 330 330 329 329 329 329 328 327 326 324 323 325 325 324 322 321 321 321 325 324 318 317 321 324 329 331 330 327 329 331 330 330 331 330 330 330
337 337 337 336 336 336 336 335 334 334 334 334 333 333 332 331 331 331 330 330 331 331 330 330 330 329 330 330 329 329 329 328 326 326 325 322 321 324 324 325 325 323 320 318 321 325 322 319 320 320 324 328 328 326 327 330 331 331 331 330 330 330
337 337 337 338 337 337 337 337 336 335 334 334 334 334 333 333 332 332 331 331 331 331 331 331 331 330 330 330 329 329 328 327 326 326 324 320 319 322 325 327 328 326 324 319 319 324 325 323 322 321 322 325 326 328 329 330 332 332 332 331 331 331
337 337 338 337 336 336 336 336 336 335 333 333 333 333 333 333 333 333 332 331 331 332 332 332 331 330 330 330 330 329 328 327 327 327 324 322 323 323 325 329 329 329 326 320 321 326 328 327 325 324 324 326 327 329 330 331 332 332 332 332 332 331
337 337 337 336 335 335 335 335 334 333 333 333 333 332 333 333 333 332 330 330 330 331 332 332 332 331 330 330 330 330 330 328 327 328 327 326 327 326 326 329 330 331 327 322 325 328 328 328 327 325 325 327 328 329 330 331 332 332 332 332 332 331
335 335 334 334 333 332 332 332 332 331 331 331 331 331 332 333 332 331 329 329 330 331 331 332 332 331 330 330 330 329 329 329 328 328 329 329 329 327 327 329 330 331 328 325 327 328 328 329 328 326 326 327 328 329 329 330 330 331 332 332 332 330
332 332 331 332 332 330 331 330 329 329 329 328 329 330 330 331 331 331 330 329 329 331 331 332 331 331 330 330 329 328 328 328 328 329 330 329 329 329 329 329 330 331 329 327 328 328 328 329 329 328 327 327 328 329 329 329 330 330 331 332 332 330
330 331 331 331 329 328 328 328 328 328 329 328 327 328 328 329 330 331 330 329 329 329 330 330 331 331 331 331 329 327 326 328 329 330 331 330 330 330 329 329 330 330 329 328 328 328 328 328 328 329 328 328 328 329 329 329 330 329 329 331 331 330
330 330 330 328 326 326 326 326 327 327 328 329 327 326 326 328 329 329 329 329 328 328 329 330 331 331 330 330 329 327 326 328 330 330 331 330 331 330 329 330 330 330 330 328 328 328 327 328 328 328 329 328 328 328 328 328 329 328 328 329 330 330
330 330 329 327 325 325 325 324 325 325 327 328 326 325 327 328 328 329 329 329 329 329 329 330 331 331 330 329 329 329 329 329 330 330 330 330 330 330 330 331 331 329 330 329 329 328 328 327 327 328 328 328 328 328 328 328 328 329 329 329 329 330
330 329 328 326 324 324 324 323 324 324 325 325 324 325 326 327 327 329 329 330 330 329 330 331 331 330 329 329 329 329 330 329 329 330 330 329 329 330 330 331 330 329 329 329 329 328 327 327 327 327 327 328 328 328 328 328 327 328 329 329 329 330
329 328 327 325 323 324 323 323 324 323 323 324 324 324 325 327 329 329 329 330 330 329 329 330 330 330 328 328 329 329 330 329 329 329 329 328 329 330 330 330 330 329 328 328 328 327 326 327 327 326 327 327 327 327 328 327 327 328 329 329 329 329
328 328 327 322 322 324 323 323 322 321 323 325 326 325 325 328 329 329 329 330 330 329 329 329 330 330 328 327 328 328 329 329 329 328 328 329 330 330 330 330 329 327 327 327 327 327 326 326 326 326 326 327 327 327 327 327 328 328 328 328 328 328
329 328 324 320 322 323 323 323 320 320 325 327 327 325 324 327 328 328 329 329 329 328 328 329 329 328 328 328 328 328 329 329 329 329 328 329 330 329 329 329 329 328 327 327 326 325 326 325 325 326 326 326 327 327 327 327 328 328 328 328 327 327
327 324 321 320 323 323 323 322 317 318 325 327 327 325 324 324 325 324 324 326 327 327 327 327 327 327 327 327 328 328 329 329 329 328 327 327 328 328 327 328 328 329 329 328 326 325 325 323 323 325 326 326 326 327 327 327 327 328 328 328 328 328
321 319 319 322 326 324 321 319 316 318 321 324 325 325 324 323 322 321 320 320 322 324 326 326 326 325 326 326 327 328 328 328 328 327 327 328 328 327 327 327 329 329 329 329 327 326 326 324 321 324 325 325 326 327 327 327 327 327 327 328 328 328
316 318 319 322 324 321 316 315 318 320 320 320 322 323 325 324 323 323 321 319 320 322 323 324 324 324 324 325 325 325 325 326 327 326 328 328 328 328 327 328 328 329 329 328 328 327 327 327 324 324 325 325 326 326 325 325 327 328 327 327 327 328
316 318 316 318 319 316 315 316 318 319 319 319 320 322 323 323 323 322 323 323 320 320 322 321 321 323 324 323 323 323 322 324 325 325 326 327 328 327 328 328 328 328 329 328 328 328 328 328 327 326 326 325 324 324 324 324 326 328 327 327 327 327
316 315 314 315 316 317 318 318 318 318 319 319 320 321 319 320 320 320 322 322 318 318 321 320 320 322 322 321 322 321 320 322 323 324 324 325 326 327 327 327 328 328 329 328 328 328 328 328 327 327 327 326 323 323 323 324 326 326 326 327 327 328
316 314 315 316 318 319 319 320 319 319 319 317 319 319 316 316 316 315 316 315 314 316 318 319 320 321 320 319 320 320 320 322 323 323 323 323 323 325 326 327 327 327 328 328 327 327 328 328 327 326 327 327 325 324 325 324 324 324 325 325 326 327
316 316 319 319 319 319 319 321 321 320 320 319 319 315 309 310 310 309 310 312 316 318 317 316 317 320 320 320 319 318 319 322 323 323 323 323 322 323 325 325 326 327 327 327 327 327 327 327 327 327 327 327 326 326 325 324 325 325 324 324 324 325
317 317 319 319 319 318 319 320 319 319 318 319 318 311 307 307 307 307 308 312 317 319 319 316 316 320 321 320 319 318 319 321 323 323 323 323 323 323 323 324 325 326 326 327 327 327 327 327 327 327 327 326 326 327 326 326 327 326 325 325 324 324
318 316 316 318 319 318 318 319 318 317 316 316 313 309 308 308 307 307 307 308 312 315 316 314 315 320 321 320 320 319 319 320 321 322 322 322 323 323 323 324 325 325 326 326 326 327 327 327 327 327 327 326 325 326 327 327 327 326 326 325 324 323
317 316 315 317 319 317 318 318 319 318 316 314 311 308 308 307 307 307 307 307 307 308 310 310 313 319 320 320 320 320 319 320 321 321 321 321 322 323 323 323 323 324 326 326 326 326 326 327 327 327 327 326 326 325 327 327 326 324 324 323 323 323
315 316 316 318 318 317 318 318 319 319 314 312 310 308 307 307 307 307 307 307 307 306 306 307 311 317 319 319 319 319 319 320 321 321 321 321 321 321 321 319 319 320 324 325 325 326 326 326 327 327 326 326 326 326 326 325 324 323 323 323 323 323
315 315 317 320 319 318 319 318 319 317 312 310 311 308 307 307 307 307 307 307 307 307 307 306 307 313 318 319 318 317 317 318 319 319 319 320 319 319 317 314 314 317 321 324 325 325 325 325 325 325 326 326 326 325 325 324 324 323 323 323 323 322
317 314 316 320 320 320 319 316 314 313 310 310 310 308 308 307 307 307 308 307 307 307 307 306 306 308 312 315 314 312 311 312 311 311 312 312 312 311 308 307 308 311 316 320 321 321 320 321 323 323 323 323 324 325 325 324 323 324 323 323 322 320
324 316 316 321 323 320 316 311 310 310 310 310 309 308 308 307 307 308 308 308 308 307 307 307 306 306 307 308 308 307 306 306 306 306 306 306 306 306 305 305 305 306 309 311 312 312 310 313 318 320 321 321 322 323 323 323 323 323 323 322 322 320
330 324 320 323 326 322 312 309 311 312 312 312 310 309 308 308 307 308 308 307 307 308 307 307 307 307 306 306 306 306 306 306 306 306 306 306 307 306 306 306 306 306 307 306 307 307 306 307 310 314 317 318 320 320 320 322 322 320 319 318 319 319
332 329 324 322 325 322 311 309 314 314 315 316 314 310 308 309 308 308 308 308 307 307 307 307 307 307 307 307 306 306 306 306 306 306 306 307 306 306 306 307 306 306 306 306 306 306 306 306 306 308 309 311 312 312 313 314 314 311 309 308 309 310
328 328 326 324 325 320 311 312 317 316 317 319 318 313 308 308 309 308 308 308 308 308 307 307 307 307 307 307 306 307 307 307 307 307 307 307 307 306 306 306 306 306 306 306 306 306 306 306 306 306 306 306 306 306 306 307 306 305 305 305 305 305
326 327 326 326 327 321 312 315 319 317 316 320 320 315 310 310 309 309 310 309 309 309 308 308 308 307 307 307 307 307 307 307 307 307 307 307 306 307 306 306 306 306 306 306 305 306 305 305 305 305 305 305 304 304 304 304 304 304 304 304 304 304
326 324 323 324 327 322 315 315 317 316 316 318 320 317 313 311 311 311 311 312 312 312 310 309 309 309 309 308 308 307 308 307 307 307 307 307 307 306 306 306 306 305 305 305 305 305 305 305 305 304 304 304 304 304 304 304 303 303 303 303 303 304

ECMWFFLT2_850_thetae_033.txt.gz
Theta_e
328 328 328 328 328 329 330 331 332 332 332 331 331 330 329 329 329 329 328 328 327 327 328 328 329 329 329 330 330 331 330 328 327 325 323 322 322 323 323 325 325 321 316 316 317 318 321 327 331 333 333 332 332 332 332 331 331 329 329 329 328 327
329 329 328 328 328 329 330 331 331 331 331 331 331 330 330 330 329 329 329 329 328 328 328 328 328 328 328 329 329 331 330 329 328 325 323 323 322 322 323 324 326 325 320 316 317 318 320 325 331 332 332 332 332 332 331 331 331 330 330 330 329 328
330 329 329 329 329 330 330 331 331 331 331 331 330 330 330 330 329 330 329 329 329 328 328 328 328 328 329 328 329 330 330 329 327 326 325 324 322 323 325 325 326 325 324 319 316 319 320 324 330 331 332 333 332 332 331 331 330 330 330 330 329 328
331 331 330 330 330 331 331 331 331 331 330 331 330 330 330 329 330 329 329 329 329 329 328 328 329 329 329 329 329 329 330 329 328 327 327 325 324 324 325 325 324 323 325 323 318 318 319 323 328 330 332 332 332 332 331 331 330 330 330 329 329 328
331 331 331 331 331 331 331 331 331 331 330 330 330 330 330 329 329 329 329 329 329 329 329 329 329 329 329 329 329 329 329 329 328 328 327 326 324 324 324 323 322 321 322 324 322 318 319 322 325 329 331 331 331 331 331 331 330 329 329 329 329 329
332 331 331 331 331 331 331 331 331 331 331 330 330 329 330 329 330 329 329 329 329 329 329 329 329 329 329 330 329 329 329 329 328 327 326 325 322 323 324 323 323 322 320 322 324 320 319 322 324 328 331 330 330 330 330 330 330 328 328 329 329 329
333 333 332 332 331 332 333 333 333 333 333 332 331 330 331 331 330 330 330 330 329 329 330 330 329 330 329 329 329 328 328 329 328 327 326 324 320 321 323 324 324 323 320 318 322 322 318 320 323 327 328 328 329 328 327 328 329 329 328 329 329 329
336 335 335 334 334 335 336 336 335 335 335 334 333 333 332 332 332 331 331 331 331 330 330 331 331 331 330 329 329 328 328 328 328 327 326 324 320 319 322 325 327 325 322 318 319 322 318 318 322 324 326 327 328 327 327 327 329 330 329 329 330 330
336 336 336 336 336 336 336 336 336 335 335 335 334 334 334 334 333 332 333 333 332 331 331 331 331 331 330 329 329 328 329 328 328 327 326 324 321 321 322 327 330 327 325 320 319 324 323 320 320 321 325 327 327 328 327 328 329 330 331 330 331 330
336 337 336 335 334 335 335 334 334 334 334 334 334 334 334 334 333 333 333 332 331 330 330 331 331 331 330 329 329 329 329 329 328 327 327 326 324 325 325 327 331 329 325 321 322 326 327 325 322 320 323 327 328 328 329 330 330 330 331 331 331 330
335 335 334 332 332 332 332 332 332 332 332 333 333 333 333 332 332 332 332 331 330 329 330 331 331 331 330 329 329 329 329 329 329 328 328 328 328 328 327 327 331 330 325 323 326 328 328 327 326 322 323 326 327 327 329 330 330 330 331 331 331 329
332 332 331 331 331 330 330 329 329 329 329 330 330 330 330 331 331 331 331 331 331 330 330 331 331 331 330 329 329 329 329 329 330 329 329 329 329 330 329 328 330 331 327 326 328 328 328 328 328 326 325 326 326 327 328 329 329 329 329 331 332 330
330 330 330 330 330 328 328 327 327 327 328 329 329 328 329 329 330 330 331 331 331 330 329 330 330 331 330 330 329 329 329 329 329 329 329 330 330 330 330 329 329 330 329 328 328 328 328 328 328 328 328 328 327 327 328 328 328 328 328 329 331 330
329 329 329 329 327 324 324 324 325 326 328 329 328 327 327 328 329 330 331 331 331 330 330 329 329 330 330 330 330 329 328 328 329 329 329 330 330 330 330 329 329 330 330 329 328 328 328 328 328 328 328 329 329 328 328 328 328 328 328 328 329 330
329 328 327 327 325 322 323 325 325 325 327 328 327 326 327 328 328 329 330 330 330 329 330 330 329 330 330 330 330 329 328 328 328 329 329 330 329 329 330 329 329 330 330 329 328 328 328 327 327 328 328 328 328 328 328 328 328 327 328 328 329 329
329 327 325 326 325 324 326 327 326 325 325 325 325 325 326 327 328 328 329 330 330 329 329 330 330 330 330 329 330 330 329 329 329 329 329 329 328 328 329 330 330 330 330 329 328 327 327 327 327 327 327 327 328 328 328 328 327 327 327 328 329 329
330 327 324 324 324 326 327 327 325 323 323 323 323 323 323 324 327 328 329 329 330 329 329 329 330 330 330 329 329 329 329 329 330 330 330 329 327 327 328 330 331 330 329 329 328 328 328 327 327 326 327 327 327 327 327 327 327 327 327 327 328 329
329 327 324 323 322 325 326 325 323 322 323 324 324 324 323 323 326 327 328 328 329 329 328 329 329 329 330 329 329 329 329 329 329 329 329 328 327 327 329 330 330 329 329 328 328 328 327 326 326 326 327 326 326 327 327 327 327 327 327 327 327 328
329 327 325 322 320 321 322 322 321 319 322 324 324 324 323 323 326 326 326 326 328 327 327 327 328 328 328 328 328 329 329 329 329 329 329 328 327 328 329 330 330 329 328 327 327 327 326 326 326 326 326 326 326 326 326 327 327 327 328 327 327 327
329 327 323 321 318 317 318 320 319 318 321 323 324 323 322 322 322 323 321 321 322 323 324 325 326 327 326 327 327 328 328 328 329 329 329 328 327 327 328 328 329 329 327 327 327 326 325 325 325 325 325 326 327 327 327 327 327 327 327 327 327 327
330 328 321 317 316 315 316 319 317 317 320 322 323 322 321 321 320 319 318 316 316 318 322 324 325 325 325 325 326 326 326 327 328 328 327 327 326 326 327 327 328 329 328 328 327 327 326 325 325 325 325 326 327 327 327 327 327 327 327 327 327 327
329 326 319 315 315 315 316 317 315 317 320 321 322 322 321 321 320 318 316 313 312 313 317 321 323 324 324 324 324 323 323 324 325 325 326 326 327 327 327 327 328 329 329 329 328 328 327 326 326 325 326 326 326 327 326 326 325 325 326 327 327 327
328 323 317 315 315 315 316 316 316 317 318 318 319 320 318 316 316 315 314 312 310 309 311 314 318 321 322 323 322 322 321 322 323 324 325 326 327 328 328 328 328 329 329 328 328 328 327 327 327 326 326 326 326 326 325 325 325 325 326 327 327 327
324 318 314 314 315 316 316 316 318 317 317 317 317 318 316 313 311 310 311 312 311 311 310 312 314 317 319 320 319 320 320 321 322 322 324 325 326 326 327 327 328 328 328 328 328 328 328 328 328 327 327 327 326 325 324 324 324 324 325 326 327 327
318 315 314 313 314 316 316 316 318 316 317 318 317 317 315 313 311 309 309 310 311 312 313 313 314 317 319 319 317 317 319 320 322 322 323 323 324 324 325 326 327 327 327 327 328 327 328 328 327 327 327 326 327 326 325 325 324 325 325 325 326 326
315 314 314 313 314 317 316 315 314 314 315 315 315 313 311 310 309 308 308 308 309 312 313 313 313 316 319 319 318 317 319 321 322 322 322 323 323 323 324 324 325 326 327 327 327 327 327 327 326 327 327 326 326 326 325 325 325 326 326 325 325 325
315 314 313 313 316 318 318 316 314 313 314 314 312 309 308 307 307 307 307 307 308 310 311 311 312 315 319 320 319 318 319 320 321 322 322 323 323 323 324 324 325 325 326 326 326 326 326 326 326 326 327 326 326 326 325 325 325 326 326 326 325 324
315 314 313 315 319 319 319 317 317 316 316 316 312 307 307 307 306 307 307 307 307 308 309 309 310 314 318 319 319 318 318 319 320 321 321 321 322 322 322 321 322 323 325 326 326 326 326 326 326 327 327 327 327 326 325 325 326 326 325 324 324 323
316 315 313 317 321 321 321 319 319 318 318 318 313 307 307 307 306 307 307 306 307 307 307 307 309 313 317 318 318 318 317 318 319 320 320 320 320 320 319 318 316 318 322 325 325 325 326 326 326 327 327 327 327 326 326 326 325 325 323 322 323 322
316 315 316 320 321 322 322 320 320 318 317 316 311 308 307 307 307 307 307 306 306 306 306 306 308 312 314 315 315 315 315 315 317 317 318 317 316 314 312 311 311 314 319 323 325 325 326 326 326 326 326 326 326 326 326 326 325 324 323 322 322 322
319 319 320 323 322 322 322 321 320 319 316 312 309 308 307 307 307 307 306 306 306 306 306 306 307 310 312 312 310 309 308 308 309 310 311 310 308 306 305 305 308 312 316 319 320 319 319 322 324 325 325 325 326 326 325 325 324 323 323 323 322 321
322 321 321 322 323 322 322 321 321 319 315 311 308 309 308 307 307 307 306 306 306 306 306 306 306 308 309 308 307 306 305 305 305 305 306 306 305 305 305 305 307 309 310 310 310 308 307 310 315 319 322 323 324 324 324 324 323 323 323 323 322 320
322 319 316 319 323 323 323 322 321 320 315 310 308 308 308 307 307 307 306 306 306 306 306 306 306 306 307 306 306 306 306 306 306 306 306 306 306 306 306 306 306 307 307 306 306 306 305 306 308 312 317 320 321 322 322 322 322 322 321 319 319 319
323 320 314 315 322 324 323 322 322 321 316 310 308 308 308 307 307 307 306 306 306 306 306 306 306 306 306 306 306 306 306 306 306 306 306 306 306 307 306 306 306 306 306 306 306 306 306 307 307 308 310 312 313 313 314 316 317 315 311 309 309 312
324 323 318 316 322 325 325 324 321 319 315 310 308 309 308 308 307 307 307 307 307 307 306 306 306 306 306 306 306 306 306 306 306 306 306 306 306 306 306 306 306 306 306 306 306 306 306 306 306 306 306 307 306 306 307 308 307 306 305 304 304 305
326 325 322 321 323 322 322 321 317 314 313 312 310 308 308 308 308 307 307 307 307 307 307 307 306 306 306 306 306 306 306 306 306 306 306 306 306 306 306 305 306 305 306 305 305 305 305 305 305 305 305 304 304 304 304 304 303 303 303 303 303 303
328 325 322 322 324 324 322 319 312 310 312 315 314 310 309 309 308 308 308 307 307 307 307 307 307 307 306 307 306 306 306 306 306 306 306 306 306 305 305 305 305 305 305 305 305 305 304 304 304 304 304 304 303 303 303 303 303 303 303 303 303 303